Regional Weather Roundup
Issued by NWS

Home | Current Version | Previous Version | Text Only | Print | Product List | Glossary Off
Versions: 1 2 3 4 5 6 7 8 9 10 11 12 13 14 15 16 17 18 19 20 21 22 23 24 25 26 27 28 29 30 31 32 33 34 35 36 37 38 39 40 41 42 43 44 45 46 47 48 49 50

000
ASUS45 KBOU 300207
RWRCO

WEATHER ROUNDUP FOR COLORADO
NATIONAL WEATHER SERVICE DENVER/BOULDER CO
800 PM MDT FRI AUG 29 2014

NOTE: "FAIR" INDICATES FEW OR NO CLOUDS BELOW 12000 FEET WITH NO
SIGNIFICANT WEATHER AND/OR OBSTRUCTIONS TO VISIBILITY.

COZ001>005-013-030-031-300300-
...NORTHWEST COLORADO...

CITY           SKY/WX    TMP DP  RH WIND       PRES   REMARKS
CRAIG          PTCLDY    63  52  67 SW3       30.15R
HAYDEN         MOCLDY    66  45  45 S5        30.18R
MEEKER         PTCLDY    64  49  57 NE3       30.18R
MOUNT WERNER   NOT AVBL
STEAMBOAT SPGS MOCLDY    62  50  63 CALM      30.20S
WALDEN         MOCLDY    54  45  71 E6        30.27S
$$

COZ006>008-011-300300-
...WEST CENTRAL VALLEYS...

CITY           SKY/WX    TMP DP  RH WIND       PRES   REMARKS
GRAND JUNCTION CLEAR     73  49  42 CALM      30.06R
MONTROSE       PTCLDY    72  50  45 CALM      30.15R
EAGLE          PTCLDY    64  52  63 E7        30.21S
RIFLE          PTCLDY    74  48  39 CALM      30.11R
DELTA          NOT AVBL
NUCLA          MOCLDY    73  41  31 NW5       30.17R
$$

COZ017>023-064>068-300300-
...SOUTHWEST COLORADO...

CITY           SKY/WX    TMP DP  RH WIND       PRES   REMARKS
DURANGO        CLEAR     72  37  28 SW9       30.16S
CORTEZ         CLEAR     72  40  31 N6        30.13R
PAGOSA SPRINGS PTCLDY    68  33  27 N3        30.24S
TELLURIDE      NOT AVBL
WOLF CREEK PAS MOCLDY    46  30  53 SW14G20   30.54S
$$

COZ009-010-012-014-032>034-037-058>063-300300-
...CENTRAL COLORADO...

CITY           SKY/WX    TMP DP  RH WIND       PRES   REMARKS
ASPEN          PTCLDY    58  44  60 S10       30.29R
BUENA VISTA    CLOUDY    57  44  60 E3        30.35R
COPPER MTN     MOCLDY    45  30  57 W13       30.57R
BERTHOUD PASS  MOCLDY    37  37 100 NW15      30.60R
COTTONWOOD PAS CLOUDY    54  36  50 CALM      30.47R
GUNNISON       MOCLDY    63  43  48 N7        30.28S
KREMMLING      MOCLDY    55  43  62 S12       30.28S
LEADVILLE      MOCLDY    46  39  76 NE6       30.43R
SALIDA         CLOUDY    61  43  52 SW6       30.39R
SUNLIGHT       MOCLDY    52  41  66 CALM      30.50S
WILKERSON PASS NOT AVBL
$$

COZ069>075-300300-
...SAN LUIS VALLEY/SANGRE DE CRISTO MOUNTAINS...

CITY           SKY/WX    TMP DP  RH WIND       PRES   REMARKS
ALAMOSA        CLOUDY    67  38  34 SW5       30.23R
LA VETA PASS   NOT AVBL
SAGUACHE       NOT AVBL
$$

COZ035-036-038>040-300300-
...NORTHERN COLORADO FRONT RANGE...

CITY           SKY/WX    TMP DP  RH WIND       PRES   REMARKS
DENVER INTL AP CLOUDY    62  51  67 SE7       30.15R
DMNS CITY PARK   N/A     62  48  58 E3        30.14S
AURORA         MOCLDY    63  49  60 E7        30.18R
FRONT RANGE AP NOT AVBL
ERIE MUNI ARPT CLOUDY    64  49  57 SE6       30.12R
BOULDER MUN AP CLOUDY    63  50  63 CALM      30.13R
CENTENNIAL     CLOUDY    63  45  51 S7        30.17R
BROOMFIELD     NOT AVBL
FORT COLLINS   CLOUDY    63  50  63 S8        30.12R
LONGMONT       CLOUDY    64  53  67 W6        30.13R
$$

COZ041-046-047-076>085-087-088-300300-
...PIKES PEAK/PALMER DIVIDE AND SOUTHERN FOOTHILLS...

CITY           SKY/WX    TMP DP  RH WIND       PRES   REMARKS
COLO. SPRINGS  CLOUDY    64  46  52 N14       30.23S
A. F. ACADEMY  CLOUDY    60  51  72 NE8       30.24S
ELLICOTT       CLOUDY    58  50  75 NE12      30.20F
FALCON         CLOUDY    56  51  83 W6        30.28R
FORT CARSON    MOCLDY    63  50  63 NE8       30.20R
LIMON          CLOUDY    65  49  56 W8        30.16R
MONUMENT HILL  CLOUDY    55  45  67 S6        30.25S
TRINIDAD       PTCLDY    72  36  26 SW6       30.13R
$$

COZ042>045-048>051-090-091-300300-
...NORTHEAST COLORADO...

CITY           SKY/WX    TMP DP  RH WIND       PRES   REMARKS
GREELEY ARPT   CLOUDY    61  48  63 S15       30.08F
AKRON          CLOUDY    65  52  62 W12       30.08R
BURLINGTON     PTCLDY    69  53  56 CALM      30.04R
WRAY             N/A     69  57  64 N7        30.01R
STERLING       CLOUDY    70  54  56 W14       30.04R
HOLYOKE        PTCLDY    70  59  68 NE7       30.03R
FORT MORGAN    CLOUDY    65  49  57 NW9       30.10R
$$

COZ086-089-092>099-300300-
...SOUTHEAST COLORADO...

CITY           SKY/WX    TMP DP  RH WIND       PRES   REMARKS
PUEBLO         LGT RAIN  68  49  50 NE25G33   30.12F
LA JUNTA       MOCLDY    72  50  45 N21G26    30.07R
LAMAR          PTCLDY    71  54  54 E7        29.99R
SPRINGFIELD      N/A     70  47  43 NE6       30.04R
$$


USA.gov is the U.S. government's official web portal to all federal, state and local government web resources and services.